Time,TemperatureF,DewpointF,PressureIn,WindDirection,WindDirectionDegrees,WindSpeedMPH,WindSpeedGustMPH,Humidity,HourlyPrecipIn,Conditions,Clouds,dailyrainin,SoftwareType,DateUTC
2013-01-08 00:02:00,14.0,13.0,-100.00,SE,130,0.0,1.0,94,0.00,,,-99.99,,2013-01-08 06:02:00,
2013-01-08 00:12:00,13.0,12.0,-100.00,NNE,15,0.0,1.0,94,0.00,,,-99.99,,2013-01-08 06:12:00,
2013-01-08 00:22:00,13.0,12.0,-100.00,NNE,15,0.0,1.0,94,0.00,,,-99.99,,2013-01-08 06:22:00,
2013-01-08 00:33:00,10.0,9.0,-100.00,NNE,15,0.0,0.0,94,0.00,,,-99.99,,2013-01-08 06:33:00,
2013-01-08 00:42:00,10.0,9.0,-100.00,SSE,150,0.0,1.0,94,0.00,,,-99.99,,2013-01-08 06:42:00,
2013-01-08 00:52:00,11.0,10.0,-100.00,SSE,150,0.0,2.0,94,0.00,,,-99.99,,2013-01-08 06:52:00,
2013-01-08 01:02:00,11.0,10.0,-100.00,SSE,150,0.0,2.0,94,0.00,,,-99.99,,2013-01-08 07:02:00,
2013-01-08 01:12:00,11.0,10.0,-100.00,SSE,150,0.0,2.0,94,0.00,,,-99.99,,2013-01-08 07:12:00,
2013-01-08 01:22:00,11.0,9.0,-100.00,SSW,195,0.0,1.0,94,0.00,,,-99.99,,2013-01-08 07:22:00,
2013-01-08 01:32:00,10.0,9.0,-100.00,South,185,1.0,2.0,94,0.00,,,-99.99,,2013-01-08 07:32:00,
2013-01-08 01:42:00,10.0,9.0,-100.00,South,185,1.0,2.0,94,0.00,,,-99.99,,2013-01-08 07:42:00,
2013-01-08 01:52:00,10.0,9.0,-100.00,South,185,1.0,2.0,94,0.00,,,-99.99,,2013-01-08 07:52:00,
2013-01-08 02:02:00,10.0,9.0,-100.00,South,185,1.0,2.0,94,0.00,,,-99.99,,2013-01-08 08:02:00,
2013-01-08 02:12:00,11.0,10.0,-100.00,South,170,1.0,1.0,94,0.00,,,-99.99,,2013-01-08 08:12:00,
2013-01-08 02:22:00,11.0,10.0,-100.00,South,170,1.0,1.0,94,0.00,,,-99.99,,2013-01-08 08:22:00,
2013-01-08 02:32:00,11.0,10.0,-100.00,South,170,1.0,1.0,94,0.00,,,-99.99,,2013-01-08 08:32:00,
2013-01-08 02:42:00,12.0,10.0,-100.00,South,170,1.0,2.0,94,0.00,,,-99.99,,2013-01-08 08:42:00,
2013-01-08 02:52:00,11.0,10.0,-100.00,South,175,0.0,1.0,94,0.00,,,-99.99,,2013-01-08 08:52:00,
2013-01-08 03:02:00,11.0,10.0,-100.00,South,175,0.0,1.0,94,0.00,,,-99.99,,2013-01-08 09:02:00,
2013-01-08 03:12:00,11.0,10.0,-100.00,South,175,0.0,1.0,94,0.00,,,-99.99,,2013-01-08 09:12:00,
2013-01-08 03:22:00,11.0,10.0,-100.00,South,175,0.0,1.0,94,0.00,,,-99.99,,2013-01-08 09:22:00,
2013-01-08 03:32:00,11.0,10.0,-100.00,South,175,0.0,1.0,94,0.00,,,-99.99,,2013-01-08 09:32:00,
2013-01-08 03:42:00,13.0,11.0,-100.00,NNE,20,0.0,2.0,93,0.00,,,-99.99,,2013-01-08 09:42:00,
2013-01-08 03:52:00,13.0,11.0,-100.00,NNE,20,0.0,2.0,93,0.00,,,-99.99,,2013-01-08 09:52:00,
2013-01-08 04:02:00,13.0,11.0,-100.00,NNE,20,0.0,2.0,93,0.00,,,-99.99,,2013-01-08 10:02:00,
2013-01-08 04:12:00,13.0,11.0,-100.00,NNE,20,0.0,2.0,93,0.00,,,-99.99,,2013-01-08 10:12:00,
2013-01-08 04:22:00,13.0,11.0,-100.00,NNE,20,0.0,2.0,93,0.00,,,-99.99,,2013-01-08 10:22:00,
2013-01-08 04:33:00,12.0,11.0,-100.00,East,80,0.0,2.0,93,0.00,,,-99.99,,2013-01-08 10:33:00,
2013-01-08 04:42:00,12.0,11.0,-100.00,East,80,0.0,2.0,93,0.00,,,-99.99,,2013-01-08 10:42:00,
2013-01-08 04:52:00,12.0,11.0,-100.00,East,80,0.0,2.0,93,0.00,,,-99.99,,2013-01-08 10:52:00,
2013-01-08 05:02:00,11.0,10.0,-100.00,NE,35,0.0,1.0,93,0.00,,,-99.99,,2013-01-08 11:02:00,
2013-01-08 05:12:00,11.0,9.0,-100.00,SSE,150,0.0,1.0,93,0.00,,,-99.99,,2013-01-08 11:12:00,
2013-01-08 05:22:00,11.0,9.0,-100.00,SE,130,1.0,2.0,93,0.00,,,-99.99,,2013-01-08 11:22:00,
2013-01-08 05:33:00,10.0,9.0,-100.00,SE,130,2.0,3.0,93,0.00,,,-99.99,,2013-01-08 11:33:00,
2013-01-08 05:42:00,10.0,8.0,-100.00,SE,140,2.0,4.0,93,0.00,,,-99.99,,2013-01-08 11:42:00,
2013-01-08 05:53:00,9.0,8.0,-100.00,SE,135,2.0,3.0,93,0.00,,,-99.99,,2013-01-08 11:53:00,
2013-01-08 06:02:00,9.0,8.0,-100.00,East,80,1.0,2.0,93,0.00,,,-99.99,,2013-01-08 12:02:00,
2013-01-08 06:12:00,9.0,8.0,-100.00,SE,140,1.0,1.0,93,0.00,,,-99.99,,2013-01-08 12:12:00,
2013-01-08 06:22:00,9.0,8.0,-100.00,SE,140,1.0,1.0,93,0.00,,,-99.99,,2013-01-08 12:22:00,
2013-01-08 06:32:00,9.0,8.0,-100.00,SE,125,2.0,2.0,93,0.00,,,-99.99,,2013-01-08 12:32:00,
2013-01-08 06:42:00,9.0,8.0,-100.00,SE,125,2.0,2.0,93,0.00,,,-99.99,,2013-01-08 12:42:00,
2013-01-08 06:53:00,9.0,8.0,-100.00,SE,125,2.0,2.0,93,0.00,,,-99.99,,2013-01-08 12:53:00,
2013-01-08 07:03:00,10.0,8.0,-100.00,ENE,65,1.0,2.0,93,0.00,,,-99.99,,2013-01-08 13:03:00,
2013-01-08 07:12:00,10.0,9.0,-100.00,ESE,115,2.0,2.0,93,0.00,,,-99.99,,2013-01-08 13:12:00,
2013-01-08 07:22:00,10.0,9.0,-100.00,ESE,120,3.0,6.0,93,0.00,,,-99.99,,2013-01-08 13:22:00,
2013-01-08 07:33:00,11.0,9.0,-100.00,SE,125,3.0,4.0,93,0.00,,,-99.99,,2013-01-08 13:33:00,
2013-01-08 07:42:00,11.0,9.0,-100.00,SE,125,3.0,4.0,93,0.00,,,-99.99,,2013-01-08 13:42:00,
2013-01-08 07:52:00,11.0,10.0,-100.00,ESE,120,2.0,4.0,93,0.00,,,-99.99,,2013-01-08 13:52:00,
2013-01-08 08:02:00,11.0,10.0,-100.00,ESE,110,1.0,3.0,93,0.00,,,-99.99,,2013-01-08 14:02:00,
2013-01-08 08:12:00,12.0,10.0,-100.00,SE,125,2.0,4.0,93,0.00,,,-99.99,,2013-01-08 14:12:00,
2013-01-08 08:23:00,12.0,10.0,-100.00,SE,125,2.0,4.0,93,0.00,,,-99.99,,2013-01-08 14:23:00,
2013-01-08 08:33:00,12.0,11.0,-100.00,ESE,120,4.0,5.0,93,0.00,,,-99.99,,2013-01-08 14:33:00,
2013-01-08 08:43:00,13.0,11.0,-100.00,SE,130,2.0,4.0,93,0.00,,,-99.99,,2013-01-08 14:43:00,
2013-01-08 08:53:00,13.0,12.0,-100.00,SSE,150,1.0,4.0,93,0.00,,,-99.99,,2013-01-08 14:53:00,
2013-01-08 09:02:00,13.0,12.0,-100.00,SSE,150,1.0,4.0,93,0.00,,,-99.99,,2013-01-08 15:02:00,
2013-01-08 09:12:00,13.0,12.0,-100.00,SSE,150,1.0,4.0,93,0.00,,,-99.99,,2013-01-08 15:12:00,
2013-01-08 09:22:00,13.0,12.0,-100.00,SSE,150,1.0,4.0,93,0.00,,,-99.99,,2013-01-08 15:22:00,
2013-01-08 09:33:00,19.0,18.0,-100.00,SE,135,3.0,5.0,94,0.00,,,-99.99,,2013-01-08 15:33:00,
2013-01-08 09:43:00,19.0,18.0,-100.00,SE,135,3.0,5.0,94,0.00,,,-99.99,,2013-01-08 15:43:00,
2013-01-08 09:53:00,20.0,19.0,-100.00,SE,130,6.0,9.0,95,0.00,,,-99.99,,2013-01-08 15:53:00,
2013-01-08 10:03:00,20.0,19.0,-100.00,SE,130,6.0,9.0,95,0.00,,,-99.99,,2013-01-08 16:03:00,
2013-01-08 10:12:00,20.0,19.0,-100.00,SE,130,6.0,9.0,95,0.00,,,-99.99,,2013-01-08 16:12:00,
2013-01-08 10:22:00,20.0,19.0,-100.00,SE,130,6.0,9.0,95,0.00,,,-99.99,,2013-01-08 16:22:00,
2013-01-08 10:33:00,23.0,22.0,-100.00,SE,130,2.0,5.0,95,0.00,,,-99.99,,2013-01-08 16:33:00,
2013-01-08 10:43:00,24.0,23.0,-100.00,SE,135,2.0,4.0,95,0.00,,,-99.99,,2013-01-08 16:43:00,
2013-01-08 10:53:00,24.0,23.0,-100.00,SE,135,2.0,4.0,95,0.00,,,-99.99,,2013-01-08 16:53:00,
2013-01-08 11:03:00,24.0,23.0,-100.00,SE,135,2.0,4.0,95,0.00,,,-99.99,,2013-01-08 17:03:00,
2013-01-08 11:13:00,26.0,26.0,-100.00,SSE,160,8.0,12.0,96,0.00,,,-99.99,,2013-01-08 17:13:00,
2013-01-08 11:23:00,26.0,26.0,-100.00,SSE,160,8.0,12.0,96,0.00,,,-99.99,,2013-01-08 17:23:00,
2013-01-08 11:33:00,26.0,26.0,-100.00,SSE,160,8.0,12.0,96,0.00,,,-99.99,,2013-01-08 17:33:00,
2013-01-08 11:43:00,26.0,26.0,-100.00,SSE,160,8.0,12.0,96,0.00,,,-99.99,,2013-01-08 17:43:00,
2013-01-08 11:53:00,29.0,27.0,-100.00,SSE,165,12.0,17.0,91,0.00,,,-99.99,,2013-01-08 17:53:00,
2013-01-08 12:03:00,30.0,27.0,-100.00,SSE,165,14.0,18.0,88,0.00,,,-99.99,,2013-01-08 18:03:00,
2013-01-08 12:13:00,31.0,27.0,-100.00,South,170,14.0,18.0,85,0.00,,,-99.99,,2013-01-08 18:13:00,
2013-01-08 12:23:00,31.0,27.0,-100.00,South,170,14.0,18.0,85,0.00,,,-99.99,,2013-01-08 18:23:00,
2013-01-08 12:33:00,32.0,27.0,-100.00,South,170,12.0,22.0,83,0.00,,,-99.99,,2013-01-08 18:33:00,
2013-01-08 12:43:00,33.0,28.0,-100.00,South,175,14.0,22.0,82,0.00,,,-99.99,,2013-01-08 18:43:00,
2013-01-08 12:53:00,33.0,28.0,-100.00,South,175,14.0,22.0,82,0.00,,,-99.99,,2013-01-08 18:53:00,
2013-01-08 13:03:00,33.0,28.0,-100.00,South,175,14.0,22.0,82,0.00,,,-99.99,,2013-01-08 19:03:00,
2013-01-08 13:12:00,33.0,28.0,-100.00,South,175,14.0,22.0,82,0.00,,,-99.99,,2013-01-08 19:12:00,
2013-01-08 13:22:00,34.0,29.0,-100.00,South,170,14.0,20.0,81,0.00,,,-99.99,,2013-01-08 19:22:00,
2013-01-08 13:33:00,34.0,29.0,-100.00,South,170,14.0,20.0,81,0.00,,,-99.99,,2013-01-08 19:33:00,
2013-01-08 13:43:00,34.0,29.0,-100.00,South,170,14.0,19.0,82,0.00,,,-99.99,,2013-01-08 19:43:00,
2013-01-08 13:53:00,35.0,30.0,-100.00,South,170,9.0,16.0,81,0.00,,,-99.99,,2013-01-08 19:53:00,
2013-01-08 14:03:00,35.0,30.0,-100.00,South,170,12.0,16.0,81,0.00,,,-99.99,,2013-01-08 20:03:00,
2013-01-08 14:12:00,35.0,30.0,-100.00,South,170,12.0,16.0,81,0.00,,,-99.99,,2013-01-08 20:12:00,
2013-01-08 14:22:00,35.0,30.0,-100.00,South,170,12.0,16.0,81,0.00,,,-99.99,,2013-01-08 20:22:00,
2013-01-08 14:33:00,36.0,30.0,-100.00,South,180,7.0,12.0,78,0.00,,,-99.99,,2013-01-08 20:33:00,
2013-01-08 14:43:00,36.0,30.0,-100.00,SSW,200,6.0,13.0,77,0.00,,,-99.99,,2013-01-08 20:43:00,
2013-01-08 14:54:00,36.0,29.0,-100.00,South,180,7.0,17.0,76,0.00,,,-99.99,,2013-01-08 20:54:00,
2013-01-08 15:03:00,36.0,29.0,-100.00,SSW,195,4.0,13.0,77,0.00,,,-99.99,,2013-01-08 21:03:00,
2013-01-08 15:12:00,36.0,30.0,-100.00,SSW,200,5.0,11.0,77,0.00,,,-99.99,,2013-01-08 21:12:00,
2013-01-08 15:22:00,36.0,30.0,-100.00,South,170,6.0,12.0,77,0.00,,,-99.99,,2013-01-08 21:22:00,
2013-01-08 15:33:00,36.0,30.0,-100.00,South,190,6.0,12.0,78,0.00,,,-99.99,,2013-01-08 21:33:00,
2013-01-08 15:43:00,36.0,30.0,-100.00,South,175,7.0,16.0,78,0.00,,,-99.99,,2013-01-08 21:43:00,
2013-01-08 15:53:00,36.0,30.0,-100.00,SSE,165,7.0,16.0,79,0.00,,,-99.99,,2013-01-08 21:53:00,
2013-01-08 16:03:00,36.0,30.0,-100.00,South,170,8.0,19.0,80,0.00,,,-99.99,,2013-01-08 22:03:00,
2013-01-08 16:12:00,36.0,30.0,-100.00,South,175,12.0,16.0,80,0.00,,,-99.99,,2013-01-08 22:12:00,
2013-01-08 16:22:00,36.0,31.0,-100.00,South,170,14.0,17.0,81,0.00,,,-99.99,,2013-01-08 22:22:00,
2013-01-08 16:33:00,35.0,31.0,-100.00,South,170,10.0,17.0,82,0.00,,,-99.99,,2013-01-08 22:33:00,
2013-01-08 16:43:00,35.0,30.0,-100.00,South,190,4.0,12.0,82,0.00,,,-99.99,,2013-01-08 22:43:00,
2013-01-08 16:52:00,35.0,30.0,-100.00,South,175,5.0,12.0,83,0.00,,,-99.99,,2013-01-08 22:52:00,
2013-01-08 17:02:00,35.0,30.0,-100.00,South,175,5.0,12.0,83,0.00,,,-99.99,,2013-01-08 23:02:00,
2013-01-08 17:12:00,34.0,30.0,-100.00,South,170,5.0,10.0,84,0.00,,,-99.99,,2013-01-08 23:12:00,
2013-01-08 17:22:00,34.0,30.0,-100.00,South,170,6.0,12.0,85,0.00,,,-99.99,,2013-01-08 23:22:00,
2013-01-08 17:32:00,34.0,30.0,-100.00,South,185,6.0,9.0,86,0.00,,,-99.99,,2013-01-08 23:32:00,
2013-01-08 17:43:00,34.0,30.0,-100.00,South,185,6.0,9.0,86,0.00,,,-99.99,,2013-01-08 23:43:00,
2013-01-08 17:52:00,34.0,31.0,-100.00,SSW,195,6.0,11.0,87,0.00,,,-99.99,,2013-01-08 23:52:00,
2013-01-08 18:02:00,34.0,31.0,-100.00,SSW,210,6.0,12.0,87,0.00,,,-99.99,,2013-01-09 00:02:00,
2013-01-08 18:12:00,34.0,31.0,-100.00,SSW,210,6.0,12.0,87,0.00,,,-99.99,,2013-01-09 00:12:00,
2013-01-08 18:22:00,34.0,31.0,-100.00,SSW,210,6.0,12.0,87,0.00,,,-99.99,,2013-01-09 00:22:00,
2013-01-08 18:33:00,34.0,31.0,-100.00,SSW,210,6.0,12.0,87,0.00,,,-99.99,,2013-01-09 00:33:00,
2013-01-08 18:42:00,35.0,31.0,-100.00,SW,215,11.0,17.0,86,0.00,,,-99.99,,2013-01-09 00:42:00,
2013-01-08 18:53:00,35.0,31.0,-100.00,SW,215,11.0,17.0,86,0.00,,,-99.99,,2013-01-09 00:53:00,
2013-01-08 19:02:00,35.0,31.0,-100.00,SW,215,11.0,17.0,86,0.00,,,-99.99,,2013-01-09 01:02:00,
2013-01-08 19:12:00,35.0,31.0,-100.00,SW,215,11.0,17.0,86,0.00,,,-99.99,,2013-01-09 01:12:00,
2013-01-08 19:22:00,34.0,29.0,-100.00,WSW,250,14.0,24.0,82,0.00,,,-99.99,,2013-01-09 01:22:00,
2013-01-08 19:33:00,34.0,29.0,-100.00,WSW,255,17.0,24.0,81,0.00,,,-99.99,,2013-01-09 01:33:00,
2013-01-08 19:42:00,33.0,28.0,-100.00,West,260,12.0,23.0,80,0.00,,,-99.99,,2013-01-09 01:42:00,
2013-01-08 19:52:00,32.0,27.0,-100.00,West,260,13.0,17.0,80,0.00,,,-99.99,,2013-01-09 01:52:00,
2013-01-08 20:02:00,32.0,27.0,-100.00,West,270,9.0,16.0,81,0.00,,,-99.99,,2013-01-09 02:02:00,
2013-01-08 20:12:00,31.0,27.0,-100.00,West,265,11.0,16.0,81,0.00,,,-99.99,,2013-01-09 02:12:00,
2013-01-08 20:22:00,31.0,27.0,-100.00,West,265,11.0,16.0,81,0.00,,,-99.99,,2013-01-09 02:22:00,
2013-01-08 20:32:00,31.0,27.0,-100.00,West,265,11.0,16.0,81,0.00,,,-99.99,,2013-01-09 02:32:00,
2013-01-08 20:42:00,31.0,27.0,-100.00,West,265,10.0,16.0,81,0.00,,,-99.99,,2013-01-09 02:42:00,
2013-01-08 20:52:00,31.0,27.0,-100.00,West,265,10.0,16.0,81,0.00,,,-99.99,,2013-01-09 02:52:00,
2013-01-08 21:12:00,30.0,25.0,-100.00,West,275,9.0,17.0,80,0.00,,,-99.99,,2013-01-09 03:12:00,
2013-01-08 21:22:00,30.0,25.0,-100.00,West,280,12.0,18.0,80,0.00,,,-99.99,,2013-01-09 03:22:00,
2013-01-08 21:33:00,30.0,25.0,-100.00,West,265,10.0,16.0,80,0.00,,,-99.99,,2013-01-09 03:33:00,
2013-01-08 21:43:00,30.0,25.0,-100.00,West,265,10.0,16.0,80,0.00,,,-99.99,,2013-01-09 03:43:00,
2013-01-08 21:52:00,30.0,25.0,-100.00,West,265,8.0,14.0,81,0.00,,,-99.99,,2013-01-09 03:52:00,
2013-01-08 22:02:00,30.0,25.0,-100.00,West,270,10.0,16.0,82,0.00,,,-99.99,,2013-01-09 04:02:00,
2013-01-08 22:12:00,30.0,25.0,-100.00,West,270,10.0,16.0,82,0.00,,,-99.99,,2013-01-09 04:12:00,
2013-01-08 22:22:00,30.0,25.0,-100.00,West,270,10.0,16.0,82,0.00,,,-99.99,,2013-01-09 04:22:00,
2013-01-08 22:32:00,29.0,25.0,-100.00,West,275,13.0,18.0,82,0.00,,,-99.99,,2013-01-09 04:32:00,
2013-01-08 22:42:00,29.0,25.0,-100.00,West,280,14.0,21.0,82,0.00,,,-99.99,,2013-01-09 04:42:00,
2013-01-08 22:52:00,29.0,25.0,-100.00,West,280,12.0,19.0,82,0.00,,,-99.99,,2013-01-09 04:52:00,
2013-01-08 23:03:00,29.0,25.0,-100.00,West,280,12.0,19.0,82,0.00,,,-99.99,,2013-01-09 05:03:00,
2013-01-08 23:12:00,29.0,25.0,-100.00,West,280,12.0,15.0,83,0.00,,,-99.99,,2013-01-09 05:12:00,
2013-01-08 23:22:00,30.0,25.0,-100.00,West,280,10.0,15.0,83,0.00,,,-99.99,,2013-01-09 05:22:00,
2013-01-08 23:33:00,30.0,26.0,-100.00,West,260,10.0,17.0,83,0.00,,,-99.99,,2013-01-09 05:33:00,
2013-01-08 23:42:00,30.0,26.0,-100.00,West,275,12.0,17.0,82,0.00,,,-99.99,,2013-01-09 05:42:00,
2013-01-08 23:52:00,30.0,26.0,-100.00,West,275,12.0,17.0,82,0.00,,,-99.99,,2013-01-09 05:52:00,